POPPONESSET BAY AT MASHPEE NECK MA US USGS current weather conditions

sailwx.info

Wind from 052 at 0 knots

Air temperature 22.9° C
Dewpoint 17.5° C

Last reported at 2019-Aug-23 21:15 UTC.
Time now 2019-Aug-23 23:09 UTC

Location: N 41°36' W 070°28'.
View on Google Maps.

See reports from other nearby stations

  
Tides and Currents Weather Stations Pressure Air Temp Water Temp Dewpoint Dewpoint Depression Visibility Wind Speed Wind Dir Waves Ship Positions
date/time (UTC)wind fromknots sea level pressurealtimeterstation pressurevisibilityair tempwater tempwave heightnotes
2019-Aug-23 21:15 052 0 22.9
2019-Aug-23 20:15 118 3 23.2
2019-Aug-23 19:15 110 0 22.7
2019-Aug-23 18:15 004 1 22.5
2019-Aug-23 17:15 189 1 21.4
2019-Aug-23 16:15 094 0 19.8
2019-Aug-23 15:15 134 1 18.6
2019-Aug-23 14:15 044 1 19.3
2019-Aug-23 13:15 050 1 21.1
2019-Aug-23 12:15 353 0 22.4
2019-Aug-23 11:15 071 0 21.3
2019-Aug-23 10:15 076 0 21.5
2019-Aug-23 09:15 299 1 22.0
2019-Aug-23 08:15 104 1 22.5
2019-Aug-23 07:15 045 0 23.1
2019-Aug-23 06:15 012 0 23.3
2019-Aug-23 05:15 262 0 23.3
2019-Aug-23 04:15 106 1 23.3
2019-Aug-23 03:15 232 0 23.9
2019-Aug-23 02:31 247 3 24.3
2019-Aug-23 02:15 288 1 24.1
2019-Aug-23 01:15 246 2 23.8
2019-Aug-23 00:15 245 3 24.1
2019-Aug-22 23:15 285 3 24.7
2019-Aug-22 22:15 259 2 25.6
2019-Aug-22 21:15 234 5 26.4
2019-Aug-22 20:15 156 3 26.9
2019-Aug-22 19:15 238 8 26.8
2019-Aug-22 18:15 267 6 27.5
2019-Aug-22 17:15 274 5 27.2
2019-Aug-22 16:15 241 6 28.0
2019-Aug-22 15:15 236 6 26.9
2019-Aug-22 14:15 241 6 26.6
2019-Aug-22 13:15 287 1 26.8
2019-Aug-22 12:15 244 4 25.1
2019-Aug-22 11:15 244 3 24.4
2019-Aug-22 10:15 299 1 24.0
2019-Aug-22 09:15 290 1 23.9
2019-Aug-22 08:15 266 3 24.0
2019-Aug-22 07:15 237 4 24.3
2019-Aug-22 06:15 259 4 24.1
2019-Aug-22 05:15 247 4 24.4
2019-Aug-22 04:15 241 5 24.5
2019-Aug-22 03:15 241 8 25.4
2019-Aug-22 02:15 254 3 25.5
2019-Aug-22 01:15 240 6 25.3
2019-Aug-22 00:15 237 5 25.1
2019-Aug-21 23:15 261 5 25.6